Location: �bnet
(46.9957°N, 8.4908°E)
Time: 01:23:32
(UTC+00:00)

Cosmos 923 Rocket - Pass Details

Date: 11 May 2021
Orbit: 757 x 786 km, 74.0° (Epoch: 23 June)

Event Time Altitude Azimuth Distance (km) Brightness Sun altitude
Rises 21:00:22 0° 340° (NNW) 3,245 8.7 -17.5°
Reaches altitude 10° 21:02:46 10° 344° (NNW) 2,318 7.6 -17.7°
Maximum altitude 21:07:59 62° 65° (ENE) 869 4.2 -18.2°
Enters shadow 21:10:14 33° 133° (SE) 1,272 4.6 -18.4°
